Location: Peterborough
(44.3091°N, 78.3197°W)
Time: 22:32:42
(UTC-04:00)

Altair - Pass Details

Date: 10 August 2024
Orbit: 1501 x 1682 km, 47.2° (Epoch: 19 September)

Event Time Altitude Azimuth Distance (km) Brightness Sun altitude
Rises 20:46:48 0° 293° (WNW) 4,721 13.1 -4.4°
Reaches altitude 10° 20:50:25 10° 282° (WNW) 3,710 11.1 -5.0°
Maximum altitude 20:57:52 28° 229° (SW) 2,530 8.9 -6.2°
Drops below altitude 10° 21:05:13 10° 174° (S) 3,641 9.1 -7.3°
Sets 21:08:45 0° 163° (SSE) 4,619 9.6 -7.9°
